Location: Newark
(49.4569°N, 2.2158°E)
Time: 05:15:44
(UTC+00:00)

Envisat - Visible Passes

Search period start: 14 December 2019 00:00
Search period end: 24 December 2019 00:00
Orbit: 764 x 766 km, 98.1° (Epoch: 13 December)

Date Brightness Start Highest point End Pass type
(mag) Time Alt. Az. Time Alt. Az. Time Alt. Az.
14 Dec 5.8 05:33:07 10° NE 05:36:45 19° E 05:40:21 10° SE visible
14 Dec 3.4 16:51:28 10° SE 16:56:08 39° ENE 17:00:50 10° N visible
14 Dec 4.7 18:30:39 10° SSW 18:35:13 33° W 18:39:49 10° NNW visible
15 Dec 3.6 06:34:24 10° NNE 06:39:28 63° E 06:44:30 10° S visible
15 Dec 3.3 17:53:12 10° S 17:58:16 67° WSW 18:03:21 10° NNW visible
16 Dec 5.0 05:57:58 10° NNE 06:02:30 31° E 06:06:59 10° SSE visible
16 Dec 3.0 17:16:30 10° SSE 17:21:30 62° ENE 17:26:32 10° N visible
16 Dec 5.5 18:57:12 10° SW 19:00:57 21° W 19:04:45 10° NW visible
17 Dec 6.0 05:22:17 10° NE 05:25:19 16° E 05:28:21 10° SE visible
17 Dec 3.0 06:59:53 10° NNE 07:04:59 81° WNW 07:10:04 10° SSW visible
17 Dec 3.7 16:40:28 10° SE 16:44:56 32° ENE 16:49:25 10° N visible
17 Dec 4.3 18:19:05 10° SSW 18:23:52 41° W 18:28:41 10° NNW visible
18 Dec 4.0 06:23:10 10° NNE 06:28:09 51° E 06:33:05 10° S visible
18 Dec 3.0 17:41:53 10° SSE 17:46:58 83° WSW 17:52:05 10° NNW visible
18 Dec 6.1 19:24:42 10° WSW 19:26:48 12° W 19:28:55 10° WNW visible
19 Dec 5.3 05:46:55 10° NE 05:51:07 26° E 05:55:18 10° SSE visible
19 Dec 3.1 17:05:22 10° SE 17:10:16 50° ENE 17:15:11 10° N visible
19 Dec 5.2 18:45:23 10° SSW 18:49:34 25° W 18:53:45 10° NW visible
20 Dec 6.1 05:11:42 10° ENE 05:13:52 13° E 05:16:03 10° ESE visible
20 Dec 3.1 06:48:35 10° NNE 06:53:42 83° ESE 06:58:48 10° SSW visible
20 Dec 3.9 16:29:33 10° ESE 16:33:45 27° ENE 16:37:58 10° N visible
20 Dec 3.9 18:07:36 10° S 18:12:31 50° W 18:17:29 10° NNW visible
21 Dec 4.4 06:11:59 10° NNE 06:16:49 41° E 06:21:36 10° SSE visible
21 Dec 2.9 17:30:36 10° SSE 17:35:41 82° ENE 17:40:48 10° NNW visible
21 Dec 5.9 19:12:23 10° WSW 19:15:22 16° W 19:18:22 10° NW visible
22 Dec 5.6 05:35:54 10° NE 05:39:43 21° E 05:43:31 10° SE visible
22 Dec 3.4 16:54:18 10° SE 16:59:02 41° ENE 17:03:48 10° N visible
22 Dec 4.8 18:33:42 10° SSW 18:38:11 31° W 18:42:41 10° NNW visible
23 Dec 3.4 06:37:19 10° NNE 06:42:25 68° ESE 06:47:28 10° S visible
23 Dec 3.5 17:56:11 10° S 18:01:12 62° W 18:06:16 10° NNW visible
